Wright-Patt AFB, OH

6:42 AM EST on December 11, 2017 (GMT -0500)
Wright-Patterson Air Force Base

Weather History for KFFO - April, 2014

Change the Weather History Date:

Tuesday, April 1, 2014

  Actual Average Record
Temperature  
Mean Temperature 63 °F -  
Max Temperature 73 °F 57 °F 75 °F (2003)
Min Temperature 53 °F 35 °F 24 °F (1997)
Degree Days  
Heating Degree Days 2    
Growing Degree Days 13 (Base 50)    
Moisture  
Dew Point 31 °F    
Average Humidity 33    
Maximum Humidity 50    
Minimum Humidity 13    
Precipitation  
Precipitation 0.00 in - - ()
Sea Level Pressure  
Sea Level Pressure 29.95 in    
Wind  
Wind Speed 14 mph (SW)    
Max Wind Speed 31 mph    
Max Gust Speed 40 mph    
Visibility 10 miles    
Events      
Averages and records for this station are not official NWS values.
T = Trace of Precipitation, MM = Missing Value Source: NWS Daily Summary

Daily Weather History Graph

Daily Weather History Graph

Search for Another Location

Airport or City:

Trip Planner

Search our weather history database for the weather conditions in past years. The results will help you decide how hot, cold, wet, or windy it might be!

Date:

Astronomy

Apr. 01, 2014 Rise Set
Actual Time 7:20 AM EDT 8:00 PM EDT
Civil Twilight 6:53 AM EDT 8:27 PM EDT
Nautical Twilight 6:20 AM EDT 8:59 PM EDT
Astronomical Twilight 5:47 AM EDT 9:33 PM EDT
Moon 8:22 AM EDT (4/1) 10:21 PM EDT (4/1)
Length of Visible Light 13h 34m
Length of Day
12h 40m
Waxing Crescent, 4% of the Moon is Illuminated
Apr 1
Waxing Crescent
Apr 7
First Quarter
Apr 15
Full
Apr 22
Last Quarter
Apr 29
New

Hourly Weather History & Observations

Time (EDT) Temp. Dew Point Humidity Pressure Visibility Wind Dir Wind Speed Gust Speed Precip Events Conditions
12:58 AM 54.3 °F 28.4 °F 37% 29.99 in 10.0 mi SSE 13.8 mph - N/A   Mostly Cloudy
1:58 AM 54.3 °F 28.6 °F 37% 29.96 in 10.0 mi SE 12.7 mph - N/A   Partly Cloudy
2:58 AM 55.0 °F 28.8 °F 37% 29.97 in 10.0 mi SSE 8.1 mph - 0.00 in   Scattered Clouds
3:58 AM 54.3 °F 29.3 °F 38% 30.00 in 10.0 mi SW 6.9 mph - N/A   Scattered Clouds
4:58 AM 53.6 °F 32.9 °F 45% 29.95 in 10.0 mi SE 9.2 mph - 0.00 in   Overcast
5:58 AM 53.2 °F 33.8 °F 48% 29.94 in 10.0 mi East 3.5 mph - N/A   Overcast
6:58 AM 53.8 °F 35.2 °F 50% 29.92 in 10.0 mi South 6.9 mph - N/A   Mostly Cloudy
7:58 AM 53.8 °F 34.0 °F 47% 29.92 in 10.0 mi South 10.4 mph - N/A   Clear
8:58 AM 57.4 °F 35.1 °F 43% 29.91 in 10.0 mi South 13.8 mph - N/A   Clear
9:48 AM 62.6 °F 37.4 °F 39% 29.90 in 10.0 mi SSW 23.0 mph 32.2 mph N/A   Clear
9:58 AM 63.3 °F 38.1 °F 39% 29.91 in 10.0 mi SSW 18.4 mph 32.2 mph N/A   Clear
10:58 AM 65.3 °F 37.8 °F 36% 29.91 in 10.0 mi SSW 23.0 mph 28.8 mph N/A   Clear
11:58 AM 67.8 °F 38.3 °F 34% 29.91 in 10.0 mi SW 20.7 mph 31.1 mph N/A   Clear
12:58 PM 69.8 °F 35.2 °F 28% 29.89 in 10.0 mi WSW 29.9 mph 40.3 mph N/A   Clear
1:58 PM 71.4 °F 35.4 °F 27% 29.89 in 10.0 mi SW 25.3 mph 32.2 mph N/A   Clear
2:58 PM 73.2 °F 30.7 °F 21% 29.89 in 10.0 mi WSW 29.9 mph 36.8 mph N/A   Clear
3:58 PM 73.4 °F 28.9 °F 19% 29.90 in 10.0 mi WSW 24.2 mph 36.8 mph N/A   Clear
4:58 PM 72.7 °F 21.9 °F 15% 29.91 in 10.0 mi SW 31.1 mph 36.8 mph N/A   Clear
5:58 PM 71.1 °F 18.1 °F 13% 29.94 in 10.0 mi West 24.2 mph 34.5 mph N/A   Clear
6:58 PM 68.5 °F 19.8 °F 16% 29.96 in 10.0 mi WSW 16.1 mph 25.3 mph N/A   Clear
7:58 PM 65.1 °F 24.1 °F 21% 29.99 in 10.0 mi WSW 12.7 mph - N/A   Partly Cloudy
8:58 PM 62.1 °F 28.0 °F 28% 30.03 in 10.0 mi West 12.7 mph - N/A   Scattered Clouds
9:58 PM 60.1 °F 28.2 °F 30% 30.04 in 10.0 mi West 9.2 mph - N/A   Mostly Cloudy
10:58 PM 57.6 °F 30.2 °F 35% 30.06 in 10.0 mi WNW 9.2 mph - N/A   Clear
11:58 PM 55.2 °F 30.6 °F 39% 30.08 in 10.0 mi Variable 3.5 mph - N/A   Scattered Clouds